Weather History for KRDG - January, 2013

Change the Weather History Date:

Sunday, January 6, 2013

  Actual Average Record
Temperature  
Mean Temperature 39 °F 30 °F  
Max Temperature 47 °F 38 °F 70 °F (2007)
Min Temperature 30 °F 22 °F -6 °F (1904)
Degree Days  
Heating Degree Days 26 35  
Month to date heating degree days 190 209  
Since 1 July heating degree days 2027 2240  
Cooling Degree Days 0 0  
Month to date cooling degree days 0 0  
Year to date cooling degree days 0 0  
Moisture  
Dew Point 28 °F    
Average Humidity 67    
Maximum Humidity 89    
Minimum Humidity 45    
Precipitation  
Precipitation T in 0.12 in 1.65 in (1962)
Month to date precipitation T 0.69  
Year to date precipitation T 0.69  
Sea Level Pressure  
Sea Level Pressure 30.10 in    
Wind  
Wind Speed 3 mph (WSW)    
Max Wind Speed 15 mph    
Max Gust Speed 20 mph    
Visibility 8 miles    
Events Snow    
T = Trace of Precipitation, MM = Missing Value Source: NWS Daily Summary

Daily Weather History Graph

Daily Weather History Graph

Search for Another Location

Airport or City:

Trip Planner

Search our weather history database for the weather conditions in past years. The results will help you decide how hot, cold, wet, or windy it might be!

Date:

Astronomy

Jan. 06, 2013 Rise Set
Actual Time 7:26 AM EST 4:52 PM EST
Civil Twilight 6:56 AM EST 5:23 PM EST
Nautical Twilight 6:22 AM EST 5:57 PM EST
Astronomical Twilight 5:49 AM EST 6:30 PM EST
Moon 1:38 AM EST (1/6) 12:19 PM EST (1/6)
Length of Visible Light 10h 26m
Length of Day
9h 26m
Waning Crescent, 33% of the Moon is Illuminated
Jan 6
Waning Crescent
Jan 11
New
Jan 18
First Quarter
Jan 26
Full
Feb 3
Last Quarter

Hourly Weather History & Observations

Time (EST) Temp. Windchill Dew Point Humidity Pressure Visibility Wind Dir Wind Speed Gust Speed Precip Events Conditions
12:54 AM 30.0 °F - 25.0 °F 82% 30.21 in 8.0 mi Calm Calm - N/A   Overcast
1:54 AM 30.9 °F - 25.0 °F 79% 30.20 in 8.0 mi Calm Calm - N/A   Overcast
2:54 AM 32.0 °F 26.4 °F 26.1 °F 79% 30.17 in 6.0 mi SSE 5.8 mph - 0.00 in Snow Light Snow
3:28 AM 33.8 °F - 26.6 °F 75% 30.13 in 9.0 mi Calm Calm - 0.00 in   Overcast
3:43 AM 32.0 °F 27.5 °F 28.4 °F 87% 30.12 in 9.0 mi NW 4.6 mph - 0.00 in   Overcast
3:54 AM 33.1 °F - 28.0 °F 82% 30.16 in 8.0 mi Calm Calm - 0.00 in   Overcast
4:54 AM 33.1 °F - 28.0 °F 82% 30.14 in 9.0 mi Calm Calm - N/A   Overcast
5:54 AM 33.1 °F 30.0 °F 28.0 °F 82% 30.13 in 9.0 mi SSE 3.5 mph - N/A   Overcast
6:15 AM 32.0 °F 28.7 °F 26.6 °F 80% 30.10 in 8.0 mi SSE 3.5 mph - N/A   Scattered Clouds
6:54 AM 30.9 °F - 27.0 °F 85% 30.13 in 7.0 mi Calm Calm - N/A   Overcast
7:54 AM 32.0 °F 28.7 °F 28.0 °F 85% 30.13 in 5.0 mi South 3.5 mph - N/A   Overcast
8:54 AM 33.1 °F - 30.0 °F 89% 30.14 in 4.0 mi Calm Calm - N/A   Overcast
9:54 AM 36.0 °F - 30.9 °F 82% 30.14 in 6.0 mi Calm Calm - N/A   Haze
10:54 AM 39.0 °F - 30.0 °F 70% 30.11 in 8.0 mi Calm Calm - N/A   Scattered Clouds
11:54 AM 42.1 °F 40.2 °F 30.0 °F 62% 30.08 in 9.0 mi WNW 3.5 mph - N/A   Clear
1:54 PM 45.0 °F 40.6 °F 26.1 °F 48% 30.02 in 10.0 mi West 8.1 mph - N/A   Overcast
2:54 PM 46.0 °F 41.4 °F 27.0 °F 47% 30.02 in 10.0 mi West 9.2 mph - N/A   Overcast
3:54 PM 45.0 °F 41.8 °F 27.0 °F 49% 30.01 in 10.0 mi West 5.8 mph - N/A   Overcast
4:54 PM 44.1 °F - 27.0 °F 51% 30.03 in 10.0 mi Calm Calm - N/A   Overcast
5:54 PM 43.0 °F - 27.0 °F 53% 30.04 in 10.0 mi Calm Calm - N/A   Overcast
6:54 PM 42.1 °F 40.2 °F 27.0 °F 55% 30.06 in 10.0 mi SSW 3.5 mph - N/A   Overcast
7:54 PM 42.1 °F - 28.0 °F 58% 30.06 in 10.0 mi Calm Calm - N/A   Overcast
8:54 PM 42.1 °F - 27.0 °F 55% 30.06 in 10.0 mi Calm Calm - N/A   Overcast
10:54 PM 41.0 °F 37.1 °F 28.0 °F 60% 30.10 in 10.0 mi West 5.8 mph - N/A   Overcast
11:54 PM 39.0 °F 35.7 °F 28.0 °F 65% 30.12 in 10.0 mi West 4.6 mph - N/A   Scattered Clouds